Location: Arpaise
(41.0333°N, 14.7333°E)
Time: 15:42:36
(UTC+00:00)

Cosmos 2221 - Pass Details

Date: 05 July 2020
Orbit: 592 x 617 km, 82.5° (Epoch: 10 August)

Event Time Altitude Azimuth Distance (km) Brightness Sun altitude
Rises 20:55:13 0° 357° (N) 2,892 7.1 -19.4°
Reaches altitude 10° 20:57:30 10° 2° (N) 1,980 5.9 -19.7°
Maximum altitude 21:01:47 52° 80° (E) 763 2.8 -20.1°
Enters shadow 21:02:30 46° 114° (ESE) 821 2.8 -20.2°
